STARLINK-38084, 69995

Orbit data source: Space-Track

STARLINK-38084, 69995 is a payload satellite owned by SpaceX/Seattle (US) in SSO that was launched on Sat, 11 Jul 2026 UTC via an FALCON 9 launch vehicle from the Air Force Western Test Range (AFWTR). Payload-class satellites include a variety of spacecraft equipped with specific instruments for various scientific and technological missions. These include communications satellites like Starlink; space stations such as the ISS; scientific satellites like the Hubble; Earth observation satellites from companies like Planet Labs, Umbra, and HawkEye 360; GPS; miniature CubeSats for education and research; and military/defense satellites.

Loading next visibility...
Identifier
69995, 2026-159W
Orbit
SSO
Country
Flag of USUS
Related business
Manufacturer
SpaceX/Seattle
Mission
Operational spacecraft
Bus & Motor
STARLINK V2MO, Unknown motor
Mass
575 kg wet, ~530 kg dry
Launch date (UTC)
2026-07-11 (2 months ago)
Launch vehicle
FALCON 9
Launch site
Air Force Western Test Range (AFWTR)
Object type
Payload
Rocket body
Debris
Shape & HBR
BOX + PAN, 17.7 m
Radar Cross Section
Large (>1 m²)

Expand to show TLE details & history
Last TLE update: 9 hours ago

TLE from 9 hours ago
0 STARLINK-38084
1 69995U 26159W   26264.59091266  .00021323  00000-0  39247-3 0  9998
2 69995  97.2853 106.3822 0001643  93.8643 266.2796 15.49202598 12616
Epoch: 2026-09-21T14:10Z
TLE epoch observation values (Epoch: 2026-09-21T14:10:54.853Z)
Latitude
-0.00006°
Longitude
-106.8149°
Altitude
422.263 km
Speed
7.658 km/s
True Right ascension
07h 05m 31s
True Declination
0° 00' 00"
Sunlit
Object was in daylight at epoch
Visualization orbit readout
Latitude
Unknown
Longitude
Unknown
Altitude
Unknown
Speed
Unknown
Apparent Right ascension
Unknown
Apparent Declination
Unknown
Sunlit
N/A
Visualization observer readout
Local Sidereal Time
16:22:07
Azimuth
Unknown
Elevation
Unknown
Doppler factor
Unknown
Orbital elements
Apogee altitude
417.096 km
Perigee altitude
414.863 km
Semi-major axis
6,794.116 km
Eccentricity
0.00016
Inclination
97.2853°
RAAN
106.3822°
Arg. of periapsis
93.8643°
True anomaly
266.26081°
Mean anomaly
266.2796°
Eccentric anomaly
266.27021°
Mean motion
3.87564 °/min
Orbital period
92.89 mins
BSTAR
0.00039247
Loading maneuver chart data...
Computing Atmospheric mass density...
Loading historical data...
Loading historical data...
Loading historical data...
Loading historical data...
Loading historical data...
Loading historical data...
Loading historical data...

Documentation

Showing up to 5 results
|